• In United Kingdom
  • List of Countries
  • For 7 days
  • Water Temperature
  • Satellite Maps
  • Weather Map
  • Weather Widgets
  • user-avatar
    Login

    Hourly Weather Nashavar

    Today, 20 April, Friday

    Time Temperature Precipitation Wind Pressure Humidity
    00:00 +24°C° 0.1 mm 2 mps 724 mmHg 44%
    01:00 +23°C° 0.1 mm 2 mps 724 mmHg 47%
    02:00 +23°C° 0.1 mm 2 mps 723 mmHg 49%
    03:00 +21°C° 0.4 mm 2 mps 723 mmHg 52%
    04:00 +21°C° 0.4 mm 2 mps 723 mmHg 55%
    05:00 +20°C° 0 mm 2 mps 722 mmHg 56%
    06:00 +20°C° 2.1 mm 2 mps 722 mmHg 61%
    07:00 +19°C° 2.1 mm 3 mps 722 mmHg 67%
    08:00 +18°C° 2.1 mm 3 mps 723 mmHg 72%
    09:00 +18°C° 2 mm 3 mps 723 mmHg 73%
    10:00 +17°C° 2 mm 4 mps 723 mmHg 73%
    11:00 +17°C° 0 mm 3 mps 723 mmHg 75%
    12:00 +17°C° 1.7 mm 3 mps 723 mmHg 74%
    13:00 +17°C° 1.7 mm 3 mps 723 mmHg 73%
    14:00 +17°C° 1.7 mm 3 mps 723 mmHg 72%
    15:00 +18°C° 0.1 mm 3 mps 724 mmHg 67%
    16:00 +19°C° 0.1 mm 3 mps 724 mmHg 62%
    17:00 +20°C° 0.1 mm 3 mps 724 mmHg 57%
    18:00 +19°C° 0 mm 2 mps 725 mmHg 60%
    19:00 +18°C° 0 mm 2 mps 725 mmHg 62%
    20:00 +19°C° 0 mm 1 mps 726 mmHg 65%
    21:00 +19°C° 0 mm 1 mps 727 mmHg 65%
    22:00 +18°C° 0 mm 1 mps 727 mmHg 65%
    23:00 +18°C° 0 mm 1 mps 728 mmHg 66%

    Tomorrow, 21 April, Saturday

    Time Temperature Precipitation Wind Pressure Humidity
    00:00 +18°C° 0 mm 1 mps 728 mmHg 65%
    01:00 +18°C° 0 mm 1 mps 728 mmHg 65%
    02:00 +18°C° 0 mm 1 mps 729 mmHg 64%
    03:00 +16°C° 0 mm 1 mps 729 mmHg 64%
    04:00 +16°C° 0 mm 1 mps 729 mmHg 63%
    05:00 +16°C° 0 mm 1 mps 729 mmHg 63%
    06:00 +19°C° 0 mm 1 mps 730 mmHg 58%
    07:00 +19°C° 0 mm 2 mps 730 mmHg 52%
    08:00 +20°C° 0 mm 2 mps 730 mmHg 47%
    09:00 +23°C° 0 mm 2 mps 730 mmHg 43%
    10:00 +24°C° 0 mm 2 mps 731 mmHg 39%
    11:00 +26°C° 0 mm 2 mps 731 mmHg 35%
    12:00 +27°C° 0 mm 2 mps 731 mmHg 32%
    13:00 +27°C° 0 mm 2 mps 730 mmHg 30%
    14:00 +28°C° 0 mm 2 mps 730 mmHg 27%
    15:00 +28°C° 0 mm 2 mps 730 mmHg 27%
    16:00 +29°C° 0 mm 2 mps 729 mmHg 27%
    17:00 +29°C° 0 mm 2 mps 729 mmHg 26%
    18:00 +27°C° 0 mm 2 mps 729 mmHg 29%
    19:00 +26°C° 0 mm 1 mps 730 mmHg 32%
    20:00 +25°C° 0 mm 1 mps 730 mmHg 35%
    21:00 +24°C° 0 mm 1 mps 730 mmHg 35%
    22:00 +24°C° 0 mm 2 mps 731 mmHg 36%
    23:00 +24°C° 0 mm 2 mps 731 mmHg 37%

    Day after tomorrow, 22 April, Sunday

    Time Temperature Precipitation Wind Pressure Humidity
    00:00 +23°C° 0 mm 2 mps 730 mmHg 37%
    01:00 +23°C° 0 mm 2 mps 730 mmHg 37%
    02:00 +21°C° 0 mm 2 mps 730 mmHg 37%
    03:00 +21°C° 0 mm 2 mps 730 mmHg 36%
    04:00 +20°C° 0 mm 2 mps 730 mmHg 36%
    05:00 +20°C° 0 mm 2 mps 730 mmHg 36%
    06:00 +21°C° 0 mm 2 mps 730 mmHg 33%
    07:00 +23°C° 0 mm 2 mps 730 mmHg 31%
    08:00 +25°C° 0 mm 2 mps 730 mmHg 29%
    09:00 +26°C° 0 mm 2 mps 730 mmHg 26%
    10:00 +28°C° 0 mm 2 mps 730 mmHg 23%
    11:00 +30°C° 0 mm 2 mps 730 mmHg 20%
    12:00 +31°C° 0 mm 2 mps 730 mmHg 18%
    13:00 +31°C° 0 mm 2 mps 730 mmHg 17%
    14:00 +32°C° 0 mm 2 mps 729 mmHg 15%
    15:00 +32°C° 0 mm 2 mps 729 mmHg 15%
    16:00 +34°C° 0 mm 2 mps 729 mmHg 15%
    17:00 +33°C° 0 mm 1 mps 728 mmHg 15%
    18:00 +31°C° 0 mm 1 mps 729 mmHg 18%
    19:00 +29°C° 0 mm 1 mps 729 mmHg 21%
    20:00 +26°C° 0 mm 0 mps 730 mmHg 24%
    21:00 +27°C° 0 mm 1 mps 730 mmHg 24%
    22:00 +27°C° 0 mm 1 mps 730 mmHg 24%
    23:00 +26°C° 0 mm 1 mps 731 mmHg 23%

    23 April, Monday

    Time Temperature Precipitation Wind Pressure Humidity
    00:00 +26°C° 0 mm 1 mps 730 mmHg 24%
    01:00 +25°C° 0 mm 2 mps 730 mmHg 25%
    02:00 +24°C° 0 mm 2 mps 730 mmHg 26%
    03:00 +24°C° 0 mm 2 mps 729 mmHg 26%
    04:00 +23°C° 0 mm 2 mps 729 mmHg 26%
    05:00 +23°C° 0 mm 2 mps 729 mmHg 27%
    06:00 +24°C° 0 mm 2 mps 729 mmHg 25%
    07:00 +25°C° 0 mm 2 mps 729 mmHg 23%
    08:00 +27°C° 0 mm 2 mps 730 mmHg 21%
    09:00 +29°C° 0 mm 2 mps 730 mmHg 19%
    10:00 +30°C° 0 mm 2 mps 730 mmHg 16%
    11:00 +32°C° 0 mm 2 mps 730 mmHg 13%
    12:00 +34°C° 0 mm 2 mps 729 mmHg 12%
    13:00 +35°C° 0 mm 2 mps 729 mmHg 12%
    14:00 +36°C° 0 mm 2 mps 728 mmHg 11%
    15:00 +36°C° 0 mm 2 mps 728 mmHg 11%
    16:00 +35°C° 0 mm 1 mps 728 mmHg 11%
    17:00 +35°C° 0 mm 1 mps 728 mmHg 11%
    18:00 +33°C° 0 mm 1 mps 728 mmHg 14%
    19:00 +32°C° 0 mm 1 mps 728 mmHg 18%
    20:00 +28°C° 0 mm 0 mps 729 mmHg 21%
    21:00 +29°C° 0 mm 1 mps 729 mmHg 20%
    22:00 +29°C° 0 mm 1 mps 729 mmHg 20%
    23:00 +28°C° 0 mm 1 mps 730 mmHg 20%

    24 April, Tuesday

    Time Temperature Precipitation Wind Pressure Humidity
    00:00 +27°C° 0 mm 1 mps 729 mmHg 21%
    01:00 +27°C° 0 mm 2 mps 729 mmHg 22%
    02:00 +26°C° 0 mm 2 mps 728 mmHg 23%
    03:00 +26°C° 0 mm 2 mps 728 mmHg 23%
    04:00 +25°C° 0 mm 2 mps 728 mmHg 23%
    05:00 +24°C° 0 mm 2 mps 728 mmHg 24%
    06:00 +26°C° 0 mm 2 mps 728 mmHg 22%
    07:00 +27°C° 0 mm 2 mps 728 mmHg 21%
    08:00 +29°C° 0 mm 2 mps 729 mmHg 20%
    09:00 +30°C° 0 mm 2 mps 729 mmHg 18%
    10:00 +32°C° 0 mm 2 mps 728 mmHg 15%
    11:00 +35°C° 0 mm 2 mps 728 mmHg 13%
    12:00 +36°C° 0 mm 2 mps 728 mmHg 13%
    13:00 +37°C° 0 mm 2 mps 728 mmHg 12%
    14:00 +37°C° 0 mm 1 mps 727 mmHg 11%
    15:00 +37°C° 0 mm 1 mps 727 mmHg 11%
    16:00 +37°C° 0 mm 1 mps 726 mmHg 11%
    17:00 +37°C° 0 mm 1 mps 726 mmHg 11%
    18:00 +35°C° 0 mm 1 mps 726 mmHg 15%
    19:00 +33°C° 0 mm 1 mps 727 mmHg 18%
    20:00 +29°C° 0 mm 0 mps 727 mmHg 22%
    21:00 +29°C° 0 mm 0 mps 727 mmHg 22%
    22:00 +30°C° 0 mm 1 mps 727 mmHg 22%
    23:00 +29°C° 0 mm 1 mps 727 mmHg 22%

    25 April, Wednesday

    Time Temperature Precipitation Wind Pressure Humidity
    00:00 +29°C° 0 mm 1 mps 727 mmHg 22%
    01:00 +28°C° 0 mm 1 mps 726 mmHg 22%
    02:00 +28°C° 0 mm 1 mps 726 mmHg 22%
    03:00 +27°C° 0 mm 1 mps 726 mmHg 23%
    04:00 +27°C° 0 mm 1 mps 726 mmHg 23%
    05:00 +26°C° 0 mm 1 mps 726 mmHg 24%
    06:00 +28°C° 0 mm 1 mps 726 mmHg 23%
    07:00 +29°C° 0 mm 2 mps 726 mmHg 22%
    08:00 +30°C° 0 mm 2 mps 726 mmHg 21%
    09:00 +32°C° 0 mm 2 mps 726 mmHg 18%
    10:00 +34°C° 0 mm 2 mps 727 mmHg 16%
    11:00 +36°C° 0 mm 2 mps 727 mmHg 14%
    12:00 +37°C° 0 mm 2 mps 726 mmHg 13%
    13:00 +38°C° 0 mm 2 mps 726 mmHg 12%
    14:00 +39°C° 0 mm 1 mps 725 mmHg 12%
    15:00 +39°C° 0 mm 1 mps 725 mmHg 12%
    16:00 +39°C° 0 mm 1 mps 725 mmHg 13%
    17:00 +39°C° 0 mm 1 mps 724 mmHg 13%
    18:00 +36°C° 0 mm 1 mps 725 mmHg 16%
    19:00 +34°C° 0 mm 1 mps 725 mmHg 19%
    20:00 +32°C° 0 mm 1 mps 725 mmHg 22%
    21:00 +32°C° 0 mm 1 mps 726 mmHg 23%
    22:00 +31°C° 0 mm 2 mps 726 mmHg 23%
    23:00 +31°C° 0 mm 2 mps 726 mmHg 23%
    Show more